Hoquiam, WA
on Thursday, December 13, 2012

Thursday
Previous Day Next Day
Daily Summary
 ActualAverageRecord
Temperature
Mean Temperature °F / °C 41°F / 5°C  
Max Temperature 44°F / 7°C 46°F / 8°C 59°F / 15°C (1977)
Min Temperature 33°F / 1°C 37°F / 3°C 21°F / -6°C (1972)
Degree Days
Heating Degree Days 26 24  
Month to date heating degree days 299  
Cooling Degree Days 0 0  
Month to date cooling degree days 0  
Year to date cooling degree days 23  
Moisture
Dew Point 38°F / 3°C   
Average Humidity 94    
Maximum Humidity 100    
Minimum Humidity 85    
Precipitation
Precipitation 0.30 in / 7.62 cm 0.32 in / 8.13 cm 2.36 in / 5.99 cm (2001)
Month to date precipitation 4.26  
Year to date precipitation 61.85  
Wind
Wind Speed 7 mph / 11 km/h   
Max Wind Speed 13 mph / 21 km/h   
Max Gust Speed mph / km/h   
Visibility 7 miles / 11 kilometers   
Events Fog , Rain   

Key: T is trace of precipitation, MM is missing value
Source: NWS Daily Summary
Time(PST)TemperatureDew PointHumidity Pressure Visibility Wind DirectionWind SpeedGust SpeedPrecipitationEvents Conditions
12:33 AM 35.6°F / 2.0°C 33.8°F / 1.0°C 93% 30.02 in / 1016.5 hPa 5.0 miles / 8.0 kilometers NE 8.1 mph / 13.0 km/h - N/A   Overcast
12:45 AM 35.6°F / 2.0°C 33.8°F / 1.0°C 93% 30.02 in / 1016.5 hPa 1.5 miles / 2.4 kilometers ENE 8.1 mph / 13.0 km/h - N/A   Overcast
12:53 AM 35.1°F / 1.7°C 34.0°F / 1.1°C 96% 30.03 in / 1016.9 hPa 1.0 miles / 1.6 kilometers NE 6.9 mph / 11.1 km/h - N/A   Overcast
1:15 AM 35.6°F / 2.0°C 33.8°F / 1.0°C 93% 30.02 in / 1016.5 hPa 2.0 miles / 3.2 kilometers NE 6.9 mph / 11.1 km/h - N/A   Overcast
1:23 AM 35.6°F / 2.0°C 33.8°F / 1.0°C 93% 30.02 in / 1016.5 hPa 5.0 miles / 8.0 kilometers NE 6.9 mph / 11.1 km/h - N/A   Mostly Cloudy
1:53 AM 34.0°F / 1.1°C 34.0°F / 1.1°C 100% 30.04 in / 1017.0 hPa 3.0 miles / 4.8 kilometers ENE 3.5 mph / 5.6 km/h - N/A   Mostly Cloudy
2:53 AM 34.0°F / 1.1°C 33.1°F / 0.6°C 96% 30.04 in / 1017.3 hPa 7.0 miles / 11.3 kilometers ENE 5.8 mph / 9.3 km/h - N/A   Overcast
3:09 AM 33.8°F / 1.0°C 33.8°F / 1.0°C 100% 30.04 in / 1017.2 hPa 1.5 miles / 2.4 kilometers ENE 8.1 mph / 13.0 km/h - N/A   Overcast
3:17 AM 33.8°F / 1.0°C 33.8°F / 1.0°C 100% 30.04 in / 1017.2 hPa 0.5 miles / 0.8 kilometers ENE 4.6 mph / 7.4 km/h - N/A Fog Fog
3:25 AM 33.8°F / 1.0°C 33.8°F / 1.0°C 100% 30.03 in / 1016.8 hPa 2.5 miles / 4.0 kilometers ENE 5.8 mph / 9.3 km/h - N/A   Overcast
3:32 AM 33.8°F / 1.0°C 33.8°F / 1.0°C 100% 30.03 in / 1016.8 hPa 6.0 miles / 9.7 kilometers ENE 4.6 mph / 7.4 km/h - N/A   Overcast
3:51 AM 33.8°F / 1.0°C 33.8°F / 1.0°C 100% 30.03 in / 1016.8 hPa 2.0 miles / 3.2 kilometers ENE 6.9 mph / 11.1 km/h - N/A   Overcast
3:53 AM 34.0°F / 1.1°C 33.1°F / 0.6°C 96% 30.04 in / 1017.2 hPa 2.5 miles / 4.0 kilometers ENE 5.8 mph / 9.3 km/h - N/A   Overcast
4:00 AM 33.8°F / 1.0°C 33.8°F / 1.0°C 100% 30.03 in / 1016.8 hPa 5.0 miles / 8.0 kilometers ENE 5.8 mph / 9.3 km/h - N/A   Overcast
4:53 AM 35.1°F / 1.7°C 35.1°F / 1.7°C 100% 30.05 in / 1017.4 hPa 7.0 miles / 11.3 kilometers East 8.1 mph / 13.0 km/h - N/A   Overcast
5:53 AM 36.0°F / 2.2°C 35.1°F / 1.7°C 97% 30.02 in / 1016.4 hPa 10.0 miles / 16.1 kilometers ENE 8.1 mph / 13.0 km/h - N/A   Overcast
6:53 AM 36.0°F / 2.2°C 36.0°F / 2.2°C 100% 30.03 in / 1016.9 hPa 10.0 miles / 16.1 kilometers ENE 6.9 mph / 11.1 km/h - N/A   Overcast
7:53 AM 37.0°F / 2.8°C 36.0°F / 2.2°C 96% 30.01 in / 1016.3 hPa 5.0 miles / 8.0 kilometers ENE 10.4 mph / 16.7 km/h - N/A   Scattered Clouds
8:01 AM 37.4°F / 3.0°C 35.6°F / 2.0°C 93% 30.00 in / 1015.8 hPa 3.0 miles / 4.8 kilometers ENE 9.2 mph / 14.8 km/h - N/A   Scattered Clouds
8:53 AM 37.0°F / 2.8°C 36.0°F / 2.2°C 96% 30.01 in / 1016.0 hPa 6.0 miles / 9.7 kilometers NE 11.5 mph / 18.5 km/h - N/A   Clear
9:53 AM 41.0°F / 5.0°C 39.0°F / 3.9°C 93% 30.00 in / 1015.7 hPa 10.0 miles / 16.1 kilometers ENE 6.9 mph / 11.1 km/h - N/A   Partly Cloudy
10:53 AM 42.1°F / 5.6°C 39.0°F / 3.9°C 89% 29.99 in / 1015.4 hPa 10.0 miles / 16.1 kilometers ENE 5.8 mph / 9.3 km/h - N/A   Overcast
11:53 AM 43.0°F / 6.1°C 39.0°F / 3.9°C 86% 29.96 in / 1014.6 hPa 10.0 miles / 16.1 kilometers ENE 6.9 mph / 11.1 km/h - N/A   Overcast
12:53 PM 44.1°F / 6.7°C 39.9°F / 4.4°C 85% 29.94 in / 1013.8 hPa 9.0 miles / 14.5 kilometers ENE 5.8 mph / 9.3 km/h - N/A   Overcast
1:42 PM 42.8°F / 6.0°C 39.2°F / 4.0°C 87% 29.90 in / 1012.4 hPa 10.0 miles / 16.1 kilometers NE 3.5 mph / 5.6 km/h - 0.01 in / 0.3 cm   Overcast
1:53 PM 43.0°F / 6.1°C 41.0°F / 5.0°C 93% 29.91 in / 1012.6 hPa 10.0 miles / 16.1 kilometers ENE 4.6 mph / 7.4 km/h - 0.01 in / 0.3 cm   Overcast
2:38 PM 42.8°F / 6.0°C 41.0°F / 5.0°C 93% 29.87 in / 1011.4 hPa 10.0 miles / 16.1 kilometers East 8.1 mph / 13.0 km/h - N/A   Overcast
3:08 PM 44.6°F / 7.0°C 41.0°F / 5.0°C 87% 29.87 in / 1011.4 hPa 10.0 miles / 16.1 kilometers ENE 8.1 mph / 13.0 km/h - N/A Rain Light Rain
4:42 PM 44.6°F / 7.0°C 41.0°F / 5.0°C 87% 29.84 in / 1010.4 hPa 10.0 miles / 16.1 kilometers SE 10.4 mph / 16.7 km/h - 0.01 in / 0.3 cm   Overcast
4:53 PM 44.6°F / 7.0°C 41.0°F / 5.0°C 87% 29.84 in / 1010.4 hPa 10.0 miles / 16.1 kilometers SE 11.5 mph / 18.5 km/h - N/A   Overcast
5:38 PM 44.6°F / 7.0°C 41.0°F / 5.0°C 87% 29.83 in / 1010.0 hPa 7.0 miles / 11.3 kilometers SE 9.2 mph / 14.8 km/h - 0.02 in / 0.5 cm Rain Light Rain
5:53 PM 43.0°F / 6.1°C 41.0°F / 5.0°C 93% 29.84 in / 1010.4 hPa 6.0 miles / 9.7 kilometers SE 10.4 mph / 16.7 km/h - 0.03 in / 0.8 cm Rain Light Rain
6:25 PM 42.8°F / 6.0°C 41.0°F / 5.0°C 93% 29.82 in / 1009.7 hPa 6.0 miles / 9.7 kilometers ESE 6.9 mph / 11.1 km/h - 0.04 in / 1.0 cm Rain Light Rain
6:53 PM 43.0°F / 6.1°C 41.0°F / 5.0°C 93% 29.83 in / 1010.1 hPa 7.0 miles / 11.3 kilometers ESE 8.1 mph / 13.0 km/h - 0.08 in / 2.0 cm Rain Light Rain
7:53 PM 42.1°F / 5.6°C 41.0°F / 5.0°C 96% 29.82 in / 1009.8 hPa 8.0 miles / 12.9 kilometers East 6.9 mph / 11.1 km/h - 0.06 in / 1.5 cm Rain Light Rain
8:53 PM 42.1°F / 5.6°C 41.0°F / 5.0°C 96% 29.82 in / 1009.6 hPa 6.0 miles / 9.7 kilometers East 8.1 mph / 13.0 km/h - 0.05 in / 1.3 cm Rain Light Rain
9:14 PM 42.8°F / 6.0°C 41.0°F / 5.0°C 93% 29.80 in / 1009.0 hPa 10.0 miles / 16.1 kilometers East 8.1 mph / 13.0 km/h - 0.01 in / 0.3 cm Rain Light Rain
9:31 PM 42.8°F / 6.0°C 41.0°F / 5.0°C 93% 29.80 in / 1009.0 hPa 7.0 miles / 11.3 kilometers East 6.9 mph / 11.1 km/h - 0.03 in / 0.8 cm Rain Light Rain
9:53 PM 42.8°F / 6.0°C 41.0°F / 5.0°C 93% 29.80 in / 1009.0 hPa 7.0 miles / 11.3 kilometers East 6.9 mph / 11.1 km/h - N/A Rain Light Rain
10:24 PM 42.8°F / 6.0°C 41.0°F / 5.0°C 93% 29.79 in / 1008.7 hPa 10.0 miles / 16.1 kilometers East 10.4 mph / 16.7 km/h - 0.02 in / 0.5 cm Rain Light Rain
10:35 PM 42.8°F / 6.0°C 41.0°F / 5.0°C 93% 29.79 in / 1008.7 hPa 10.0 miles / 16.1 kilometers ENE 9.2 mph / 14.8 km/h - 0.02 in / 0.5 cm Rain Light Rain
10:53 PM 42.1°F / 5.6°C 41.0°F / 5.0°C 96% 29.80 in / 1009.1 hPa 9.0 miles / 14.5 kilometers East 9.2 mph / 14.8 km/h - 0.03 in / 0.8 cm Rain Light Rain
11:11 PM 42.8°F / 6.0°C 41.0°F / 5.0°C 93% 29.79 in / 1008.7 hPa 7.0 miles / 11.3 kilometers East 10.4 mph / 16.7 km/h - 0.02 in / 0.5 cm Rain Light Rain
11:34 PM 42.8°F / 6.0°C 41.0°F / 5.0°C 93% 29.78 in / 1008.4 hPa 8.0 miles / 12.9 kilometers East 9.2 mph / 14.8 km/h - 0.03 in / 0.8 cm Rain Light Rain
11:50 PM 42.8°F / 6.0°C 41.0°F / 5.0°C 93% 29.78 in / 1008.4 hPa 8.0 miles / 12.9 kilometers ESE 12.7 mph / 20.4 km/h - 0.04 in / 1.0 cm Rain Light Rain
11:53 PM 43.0°F / 6.1°C 41.0°F / 5.0°C 93% 29.79 in / 1008.6 hPa 8.0 miles / 12.9 kilometers ESE 11.5 mph / 18.5 km/h - 0.04 in / 1.0 cm Rain Light Rain
Moon Phase
Dec. 13 Dec. 20 Dec. 28 Jan. 04 Jan. 11
Sunrise:07:53 AM (PST) Moon Rise:08:06 AM (PST)12/13
Sunset:04:26 PM (PST) Moon Set:05:17 PM (PST)12/13

Copyright © 2014 The Weather Underground, Inc.